Flag for Cote d'Ivoire (Ivory Coast) Weather past 2 weeks in Abidjan, Cote d'Ivoire (Ivory Coast)

Now
73 °F

Passing clouds.


Feels Like: 70 °F
Forecast: 73 / 81 °F
Wind: 5 mph from Southwest

Location: Abidjan Airport

Current Time: Jul 30, 2015 at 6:26:36 AM

Latest Report: Jul 30, 2015 at 6:00 AM


Visibility: N/A

Pressure: 29.98 "Hg

Humidity: 94%

Dew point: 72 °F

Location of AbidjanLocation

Historic Weather in Abidjan — Graph

°F

Abidjan temperature yesterday

Maximum temperature yesterday: 81 °F (at 11:00 AM)
Minimum temperature yesterday: 73 °F (at 4:00 AM)
Average temperature yesterday: 77 °F

Past Weeks' High & Low Weather Summary

 TemperatureHumidityPressure
High82 °F (Jul 17, 10:00 AM)100% (Jul 15, 5:00 AM)30.07 "Hg (Jul 15, 5:00 AM)
Low72 °F (Jul 23, 5:00 AM)70% (Jul 24, 12:30 PM)29.89 "Hg (Jul 15, 4:00 PM)
Average77 °F89%29.97 "Hg
* Reported Jul 15 5:00 AM — Jul 30 5:00 AM, Abidjan, Weather by CustomWeather, © 2015

Note: Actual official high and low records may vary slightly from our data, if they occured in-between our weather recording intervals... More about our weather records

Advertising

Abidjan weather history for previous 24 hours

 ConditionsComfort  
Time TempWeatherWind HumidityBarometerVisibility
5:00 AM
Thu, Jul 30
73 °FPassing clouds.6 mph100%29.98 "HgN/A
4:30 AM73 °FPassing clouds.5 mph94%29.98 "HgN/A
4:00 AM73 °FPassing clouds.5 mph94%29.98 "HgN/A
3:30 AM73 °FPassing clouds.3 mph94%29.98 "HgN/A
3:00 AM73 °FPassing clouds.3 mph94%29.98 "HgN/A
2:30 AM73 °FPassing clouds.3 mph94%29.98 "HgN/A
2:00 AM73 °FPassing clouds.5 mph94%29.98 "HgN/A
1:30 AM73 °FPassing clouds.6 mph94%29.98 "HgN/A
1:00 AM73 °FPassing clouds.6 mph94%30.01 "HgN/A
12:30 AM73 °FPassing clouds.6 mph94%30.01 "HgN/A
12:00 AM73 °FPassing clouds.6 mph94%30.04 "HgN/A
11:30 PM
Wed, Jul 29
73 °FPassing clouds.6 mph94%30.04 "HgN/A
11:00 PM75 °FPassing clouds.6 mph89%30.04 "HgN/A
10:30 PM75 °FPassing clouds.6 mph89%30.04 "HgN/A
10:00 PM75 °FPassing clouds.3 mph94%30.01 "HgN/A
9:30 PM75 °FPassing clouds.6 mph89%30.01 "HgN/A
9:00 PM75 °FPassing clouds.6 mph89%30.01 "HgN/A
8:30 PM75 °FPassing clouds.6 mph89%30.01 "HgN/A
8:00 PM75 °FPassing clouds.5 mph89%29.98 "HgN/A
7:30 PM77 °FPassing clouds.6 mph83%29.98 "HgN/A
7:00 PM77 °FPassing clouds.7 mph83%29.98 "HgN/A
6:30 PM77 °FPassing clouds.7 mph83%29.95 "HgN/A
6:00 PM79 °FPassing clouds.9 mph79%29.95 "HgN/A
5:30 PM79 °FPassing clouds.9 mph74%29.95 "HgN/A
5:00 PM79 °FPassing clouds.12 mph74%29.95 "HgN/A
4:30 PM81 °FScattered clouds.12 mph70%29.95 "HgN/A
4:00 PM81 °FScattered clouds.12 mph70%29.95 "HgN/A
3:30 PM81 °FScattered clouds.10 mph74%29.95 "HgN/A
3:00 PM81 °FPassing clouds.12 mph74%29.98 "HgN/A
2:30 PM81 °FPassing clouds.13 mph70%29.98 "HgN/A
2:00 PM81 °FPassing clouds.12 mph70%29.98 "HgN/A
1:30 PM81 °FPassing clouds.9 mph70%30.01 "HgN/A
1:00 PM81 °FPassing clouds.10 mph70%30.01 "HgN/A
12:30 PM81 °FPartly sunny.9 mph70%30.04 "HgN/A
12:00 PM81 °FPartly sunny.9 mph70%30.04 "HgN/A
11:30 AM81 °FPartly sunny.9 mph74%30.04 "HgN/A
11:00 AM81 °FPartly sunny.8 mph70%30.04 "HgN/A
10:30 AM79 °FPartly sunny.8 mph74%30.04 "HgN/A
10:00 AM79 °FBroken clouds.8 mph74%30.04 "HgN/A
9:30 AM79 °FBroken clouds.9 mph74%30.07 "HgN/A
9:00 AM79 °FBroken clouds.7 mph79%30.07 "HgN/A
8:30 AM77 °FBroken clouds.7 mph83%30.04 "HgN/A
8:00 AM77 °FBroken clouds.6 mph83%30.04 "HgN/A
7:30 AM75 °FBroken clouds.5 mph94%30.04 "HgN/A
7:00 AM75 °FScattered clouds.5 mph94%30.01 "HgN/A
6:30 AM73 °FScattered clouds.2 mph94%30.01 "HgN/A
6:00 AM73 °FPassing clouds.3 mph94%30.01 "HgN/A
Weather by CustomWeather, © 2015

See weather overviewHow to use our weather pages